Regional Weather Roundup
Issued by NWS

Home | Current Version | Previous Version | Text Only | Print | Product List | Glossary On
Versions: 1 2 3 4 5 6 7 8 9 10 11 12 13 14 15 16 17 18 19 20 21 22 23 24 25 26 27 28 29 30 31 32 33 34 35 36 37 38 39 40 41 42 43 44 45 46 47 48 49 50
000
ASUS43 KMPX 211510
RWRMN
WEATHER ROUNDUP FOR MINNESOTA
NATIONAL WEATHER SERVICE TWIN CITIES/CHANHASSEN MN
900 AM CST FRI NOV 21 2014


NOTE: "FAIR" INDICATES FEW OR NO CLOUDS BELOW 12,000 FEET WITH NO
SIGNIFICANT WEATHER AND/OR OBSTRUCTIONS TO VISIBILITY. N/A MEANS
CURRENT SKY AND/OR WEATHER CONDITIONS ARE NOT AVAILABLE.

MNZ060>063-068>070-211600-
   Twin Cities Metro

CITY           SKY/WX    TMP DP  RH WIND       PRES   REMARKS
TWIN CITIES    PTSUNNY   13   6  74 SE9       30.19F WCI   1
ST PAUL        MOSUNNY   11   6  81 SE12      30.23F WCI  -3
CRYSTAL        PTSUNNY   15   7  70 SE10      30.17F WCI   2
BLAINE         MOSUNNY   16   9  73 SE10      30.17F WCI   3
LAKEVILLE      MOSUNNY   14   9  79 S12       30.18F WCI   0
EDEN PRAIRIE   CLOUDY    16   9  74 S14       30.17F WCI   2
SOUTH ST PAUL  MOSUNNY   13   7  77 S7        30.21F WCI   3
LAKE ELMO      FAIR      12   9  85 S10       30.21F WCI  -1
$$
MNZ001>005-007-008-013>017-022>024-027-028-211600-
   Northwest Minnesota

CITY           SKY/WX    TMP DP  RH WIND       PRES   REMARKS
BEMIDJI        MOSUNNY   14   8  79 S15       29.88F WCI  -2
HALLOCK        PTCLDY    16  10  79 S23       29.76F WCI  -2
ROSEAU         PTCLDY    19  12  73 S15G22    29.79S WCI   5
WARROAD        PTCLDY    18  12  79 S10G18    29.79F WCI   6
THIEF RVR FALL CLEAR     18  14  86 S20       29.80F WCI   1
CROOKSTON      PTCLDY    18  14  86 S20G30    29.85R WCI   1
FOSSTON        LGT SNOW  18  12  79 S21       29.85S VSB 1   WCI   1
DETROIT LAKES  SUNNY     19  16  86 S16       29.90F WCI   5
MOORHEAD       FAIR      18  16  93 S21G28    29.89F WCI   1
PARK RAPIDS    MOSUNNY   12   8  84 S12       29.93F WCI  -2
MAHNOMEN       FAIR      18  13  80 S16G24    29.86F WCI   3
$$
MNZ006-009>011-018-025>026-211600-
   North Central Minnesota

CITY           SKY/WX    TMP DP  RH WIND       PRES   REMARKS
BAUDETTE       MOCLDY    17   8  67 S13G21    29.81F WCI   4
FLAG ISLAND    CLOUDY    18  12  79 S18G26    29.77F HAZE    WCI   2
INTL FALLS     CLOUDY    16   5  62 S8        29.87F WCI   5
WASKISH        MOSUNNY   19  12  73 S6        29.86F WCI  11
BIG FORK       PTSUNNY   18  10  73 S16G23    29.92F WCI   3
LONGVILLE      PTSUNNY   16  10  79 S12       29.96F WCI   3
GRAND RAPIDS   PTSUNNY   10   5  79 S20       29.96F WCI  -8
CRANE LAKE     CLOUDY    12   1  62 S9G18     29.95F WCI   0
ORR            CLOUDY    12   1  62 S15G22    29.91F WCI  -4
COOK           CLOUDY    12   3  67 S12G20    29.97F WCI  -2
WALKER         FAIR      14   9  78 S12G20    29.92F WCI   1
$$
MNZ012-019>021-037-211600-
   Northeast Minnesota

CITY           SKY/WX    TMP DP  RH WIND       PRES   REMARKS
DULUTH         PTSUNNY   11   2  67 SW15G24   30.06F WCI  -5
ELY            CLOUDY    12   1  62 S12G18    30.00F WCI  -2
HIBBING        CLOUDY    13   3  64 S10       30.01F WCI   0
EVELETH        MOSUNNY   12   5  73 S12G17    30.03S WCI  -2
DULUTH HARBOR  MOSUNNY   10   3  72 SW8       30.16F WCI  -1
TWO HARBORS    PTSUNNY   14   7  73 SW13      30.09S WCI   0
SILVER BAY     MOSUNNY   14   7  73 SW9       30.09S WCI   2
GRAND MARAIS     N/A     20  12  71 W5        30.13F WCI  13
G MARAIS ARPRT CLOUDY    10   3  72 S5        30.03F WCI   2
$$
MNZ029>031-032-039>041-046>048-054>057-064-211600-
   West Central Minnesota

CITY           SKY/WX    TMP DP  RH WIND       PRES   REMARKS
FERGUS FALLS   SUNNY     18  10  73 S18       29.97F WCI   2
MORRIS         MOSUNNY   18  12  79 S17       29.96S WCI   2
ALEXANDRIA     PTSUNNY   19  13  77 S17       29.97F WCI   4
ELBOW LAKE       N/A     16  12  83 S21       29.95S WCI  -1
WADENA         MOSUNNY   14  10  85 S10       29.95F WCI   1
GLENWOOD       SUNNY     18  14  86 S25G33    29.99F WCI  -1
APPLETON       SUNNY     21  16  79 S15       29.98F WCI   8
BENSON         PTSUNNY   18  12  79 S15G22    29.99F WCI   3
ORTONVILLE     SUNNY     19  16  86 S18       29.94F WCI   4
MADISON        SUNNY     27  19  74 S17       29.98F WCI  14
WILLMAR        FAIR      18  10  73 S13G21    30.04F WCI   4
$$
MNZ033>034-036-042>043-049>051-058-059-211600-
   Central Minnesota

CITY           SKY/WX    TMP DP  RH WIND       PRES   REMARKS
ST CLOUD       MOSUNNY   13   7  77 S13       30.09F WCI  -2
SAUK CENTRE    FAIR      16  12  82 S15       30.02F WCI   2
PAYNESVILLE    PTSUNNY   15  11  84 SE21G26   30.05F WCI  -3
AITKIN         MOSUNNY   18   9  68 S12       30.01F WCI   5
PINE RIVER     MOSUNNY   12   9  85 S10       30.01F WCI  -1
BRAINERD       MOSUNNY   13   8  81 S12       30.02F WCI  -1
STAPLES        MOSUNNY   14  10  85 S15G21    29.97F WCI  -1
LONG PRAIRIE   FAIR      16  12  86 SE18      30.00F WCI  -1
LITTLE FALLS   PTSUNNY   12   9  85 SE10      30.05F WCI  -1
LITCHFIELD     MOSUNNY   18  14  86 S8        30.08F WCI   7
BUFFALO        PTSUNNY   15   9  76 S8G18     30.14F WCI   5
MAPLE LAKE     PTSUNNY   16  12  84 S8G17     30.12F WCI   5
$$
MNZ037-044-045-052-053-211600-
   East Central Minnesota

CITY           SKY/WX    TMP DP  RH WIND       PRES   REMARKS
PRINCETON      MOSUNNY   12   9  85 SE12      30.12F WCI  -2
MORA             N/A    N/A N/A N/A MISG        N/A
CAMBRIDGE      MOSUNNY   14   5  67 S14       30.13F WCI  -1
RUSH CITY      MOSUNNY    7   4  87 S8        30.16F WCI  -6
MOOSE LAKE     SUNNY     10   5  79 S12       30.09F WCI  -4
HINCKLEY       FAIR       9   5  85 S13       30.14F WCI  -7
CLOQUET        MOSUNNY    9   3  78 S8        30.07F WCI  -4
MCGREGOR       CLOUDY    12   9  85 S12G17    30.05F WCI  -2
$$
MNZ071>073-080-081-089-090-097-098-211600-
   Southwest Minnesota

CITY           SKY/WX    TMP DP  RH WIND       PRES   REMARKS
MONTEVIDEO     SUNNY     19  12  73 SW16G23   30.01F WCI   5
GRANITE FALLS  SUNNY     18  13  80 SE17      30.05F WCI   3
CANBY          MOSUNNY   25  18  75 S14G21    29.97F WCI  13
MARSHALL       MOSUNNY   23  14  68 S22G35    30.01F WCI   8
REDWOOD FALLS  SUNNY     19  13  77 S18       30.08F WCI   4
OLIVIA         SUNNY     19  12  73 S17G23    30.06F WCI   4
PIPESTONE      MOSUNNY   19  16  86 S22G29    30.01F WCI   3
WINDOM         MOSUNNY   19  12  73 S13G20    30.09S WCI   7
WORTHINGTON    MOSUNNY   16  12  86 S16       30.09S WCI   0
JACKSON        MOSUNNY   19  12  73 S16       30.12S WCI   5
TRACY          MOSUNNY   23  16  76 S17G24    30.02F WCI   9
SLAYTON        MOSUNNY   20  16  83 S23       30.04F WCI   3
$$
MNZ065>067-074>077-082>085-091>093-211600-
   South Central Minnesota

CITY           SKY/WX    TMP DP  RH WIND       PRES   REMARKS
MANKATO        SUNNY     18   7  62 S17G26    30.17S WCI   2
NEW ULM        SUNNY     16  10  79 S17       30.13F WCI   0
ST JAMES       MOSUNNY   18  10  73 S23       30.15F WCI   0
FAIRMONT       PTSUNNY   14   7  73 S18       30.16R WCI  -3
GLENCOE        MOSUNNY   17  12  80 S12G23    30.13F WCI   4
FARIBAULT      SUNNY     14   7  73 S15       30.19F WCI  -1
OWATONNA       SUNNY     14   7  73 S17       30.19S WCI  -3
WASECA         SUNNY     18   7  62 S18G24    30.20F WCI   2
ALBERT LEA     MOSUNNY   16   7  67 S15       30.20F WCI   1
$$
MNZ078>079-086>088-094>096-211600-
   Southeast Minnesota

CITY           SKY/WX    TMP DP  RH WIND       PRES   REMARKS
ROCHESTER      MOSUNNY   11   6  81 S16       30.23S WCI  -6
RED WING         N/A     14   7  73 SE7       30.24F WCI   4
STANTON        SUNNY     16   7  69 S10       30.20S WCI   3
DODGE CENTER   SUNNY     12   9  85 S22       30.19F WCI  -7
WINONA         SUNNY     12   9  85 CALM      30.32S
AUSTIN         SUNNY     10   7  85 S9        30.23F WCI  -2
PRESTON        MOSUNNY   11   6  79 S16       30.25S WCI  -6
$$
ABBREVIATIONS USED IN REMARKS
   TC - TEMPERATURES IN CELSIUS
  WCI - WIND CHILL INDEX
   HX - HEAT INDEX
  VSB - VISIBILITY
$$



USA.gov is the U.S. government's official web portal to all federal, state and local government web resources and services.